Grand Island, NE

2:37 AM CDT on March 30, 2017 (GMT -0500)
Central Nebraska Regional

Weather History for KGRI - July, 2013

Change the Weather History Date:

Thursday, July 11, 2013

  Actual Average Record
Temperature  
Mean Temperature 78 °F 76 °F  
Max Temperature 90 °F 88 °F 109 °F (1954)
Min Temperature 66 °F 65 °F 51 °F (1999)
Degree Days  
Heating Degree Days 0 0  
Month to date heating degree days 0 0  
Since 1 June heating degree days 21 24  
Since 1 July heating degree days 0 0  
Cooling Degree Days 13 11  
Month to date cooling degree days 145 121  
Year to date cooling degree days 499 399  
Since 1 June cooling degree days 404 334  
Growing Degree Days 28 (Base 50)    
Moisture  
Dew Point 64 °F    
Average Humidity 69    
Maximum Humidity 93    
Minimum Humidity 44    
Precipitation  
Precipitation 0.00 in 0.11 in 2.80 in (1961)
Month to date precipitation 0.10 1.26  
Year to date precipitation 15.10 15.51  
Snow  
Snow 0.00 in 0.00 in - ()
Month to date snowfall 0.0 0.0  
Since 1 June snowfall 0.0 0.0  
Since 1 July snowfall 0.0 0.0  
Snow Depth 0.00 in    
Sea Level Pressure  
Sea Level Pressure 29.99 in    
Wind  
Wind Speed 12 mph (SE)    
Max Wind Speed 18 mph    
Max Gust Speed 26 mph    
Visibility 10 miles    
Events      
T = Trace of Precipitation, MM = Missing Value Source: NWS Daily Summary

Daily Weather History Graph

Daily Weather History Graph

Search for Another Location

Airport or City:

Trip Planner

Search our weather history database for the weather conditions in past years. The results will help you decide how hot, cold, wet, or windy it might be!

Date:

Astronomy

Jul. 11, 2013 Rise Set
Actual Time 6:11 AM CDT 9:05 PM CDT
Civil Twilight 5:38 AM CDT 9:38 PM CDT
Nautical Twilight 4:56 AM CDT 10:20 PM CDT
Astronomical Twilight 4:08 AM CDT 11:08 PM CDT
Moon 9:33 AM CDT (7/11) 10:45 PM CDT (7/11)
Length of Visible Light 16h 00m
Length of Day
14h 54m
Waxing Crescent, 11% of the Moon is Illuminated
Jul 11
Waxing Crescent
Jul 15
First Quarter
Jul 22
Full
Jul 29
Last Quarter
Aug 6
New

Hourly Weather History & Observations

Time (CDT) Temp. Heat Index Dew Point Humidity Pressure Visibility Wind Dir Wind Speed Gust Speed Precip Events Conditions
12:53 AM 70.0 °F - 64.9 °F 84% 30.04 in 10.0 mi ESE 4.6 mph - N/A   Clear
1:53 AM 71.1 °F - 64.9 °F 81% 30.03 in 10.0 mi ESE 8.1 mph - N/A   Clear
2:53 AM 70.0 °F - 64.9 °F 84% 30.03 in 10.0 mi SE 8.1 mph - N/A   Scattered Clouds
3:53 AM 69.1 °F - 64.9 °F 87% 30.03 in 10.0 mi SSE 5.8 mph - N/A   Clear
4:53 AM 66.9 °F - 64.0 °F 90% 30.02 in 10.0 mi SE 4.6 mph - N/A   Partly Cloudy
5:53 AM 66.9 °F - 63.0 °F 87% 30.03 in 10.0 mi ESE 5.8 mph - N/A   Clear
6:53 AM 68.0 °F - 63.0 °F 84% 30.06 in 10.0 mi SSW 8.1 mph - N/A   Mostly Cloudy
7:53 AM 70.0 °F - 63.0 °F 78% 30.05 in 10.0 mi SE 9.2 mph - N/A   Partly Cloudy
8:53 AM 73.9 °F - 62.1 °F 66% 30.04 in 10.0 mi SE 11.5 mph - N/A   Clear
9:53 AM 78.1 °F - 61.0 °F 56% 30.05 in 10.0 mi SSE 16.1 mph 26.5 mph N/A   Clear
10:53 AM 80.1 °F 80.9 °F 60.1 °F 50% 30.06 in 10.0 mi SSE 15.0 mph 20.7 mph N/A   Mostly Cloudy
11:53 AM 82.9 °F 84.0 °F 63.0 °F 51% 30.02 in 10.0 mi SSE 12.7 mph - N/A   Clear
12:53 PM 84.9 °F 86.1 °F 64.0 °F 49% 30.01 in 10.0 mi SE 13.8 mph 20.7 mph N/A   Clear
1:53 PM 86.0 °F 87.3 °F 64.0 °F 48% 30.00 in 10.0 mi SE 13.8 mph 20.7 mph N/A   Clear
2:53 PM 89.1 °F 91.0 °F 64.9 °F 45% 29.99 in 10.0 mi SSE 13.8 mph 19.6 mph N/A   Clear
3:53 PM 89.1 °F 91.0 °F 64.9 °F 45% 29.97 in 10.0 mi SE 13.8 mph 20.7 mph N/A   Clear
4:53 PM 90.0 °F 92.4 °F 66.0 °F 45% 29.95 in 10.0 mi SSE 16.1 mph - N/A   Clear
5:53 PM 89.1 °F 91.0 °F 64.9 °F 45% 29.94 in 10.0 mi SSE 13.8 mph 21.9 mph N/A   Clear
6:53 PM 88.0 °F 89.6 °F 64.9 °F 46% 29.91 in 10.0 mi SE 13.8 mph 23.0 mph N/A   Clear
7:53 PM 84.9 °F 87.1 °F 66.0 °F 53% 29.90 in 10.0 mi SE 12.7 mph - N/A   Clear
8:53 PM 81.0 °F 83.0 °F 66.0 °F 60% 29.90 in 10.0 mi SE 12.7 mph - N/A   Clear
9:53 PM 79.0 °F - 64.0 °F 60% 29.90 in 10.0 mi SE 12.7 mph - N/A   Clear
10:53 PM 77.0 °F - 63.0 °F 62% 29.92 in 10.0 mi SE 15.0 mph - N/A   Clear
11:53 PM 75.9 °F - 62.1 °F 62% 29.93 in 10.0 mi SE 11.5 mph - N/A   Clear